�������l�o���
Date,Time,MP-1(��Sv/h),MP-2(��Sv/h),MP-3(��Sv/h),MP-4(��Sv/h),MP-5(��Sv/h),MP-6(��Sv/h),MP-7(��Sv/h),MP-8(��Sv/h),����,����(m/s),���J
2018/10/26,00:00,0.781,1.181,0.833,1.476,1.078,0.460,0.811,0.765,�k��,5.8,��
2018/10/26,00:10,0.782,1.184,0.833,1.475,1.078,0.460,0.810,0.765,�k��,5.2,��
2018/10/26,00:20,0.783,1.180,0.832,1.475,1.077,0.462,0.810,0.766,�k��,5.0,��
2018/10/26,00:30,0.784,1.184,0.833,1.475,1.077,0.460,0.807,0.764,�k��,4.7,��
2018/10/26,00:40,0.784,1.184,0.834,1.473,1.077,0.459,0.809,0.767,�k��,4.6,��
2018/10/26,00:50,0.781,1.177,0.833,1.474,1.075,0.459,0.810,0.766,�k��,5.2,��
2018/10/26,01:00,0.781,1.181,0.834,1.472,1.075,0.459,0.812,0.766,�k��,5.1,��
2018/10/26,01:10,0.782,1.181,0.832,1.475,1.077,0.459,0.809,0.766,�k�k��,5.4,��
2018/10/26,01:20,0.780,1.181,0.833,1.476,1.076,0.459,0.809,0.766,�k�k��,5.5,��
2018/10/26,01:30,0.782,1.181,0.833,1.479,1.079,0.460,0.809,0.766,�k�k��,4.7,��
2018/10/26,01:40,0.780,1.181,0.832,1.478,1.076,0.460,0.811,0.766,�k�k��,4.6,��
2018/10/26,01:50,0.781,1.184,0.832,1.475,1.077,0.460,0.810,0.767,�k��,4.0,��
2018/10/26,02:00,0.781,1.181,0.833,1.477,1.078,0.459,0.810,0.765,�k��,4.5,��
2018/10/26,02:10,0.782,1.182,0.832,1.476,1.076,0.459,0.810,0.766,�k��,4.4,��
2018/10/26,02:20,0.781,1.181,0.834,1.477,1.075,0.460,0.812,0.767,�k��,4.4,��
2018/10/26,02:30,0.780,1.180,0.832,1.477,1.076,0.458,0.809,0.765,�k��,4.3,��
2018/10/26,02:40,0.782,1.182,0.831,1.474,1.077,0.458,0.808,0.766,�k��,4.0,��
2018/10/26,02:50,0.781,1.181,0.832,1.475,1.077,0.460,0.809,0.765,�k�k��,3.6,��
2018/10/26,03:00,0.780,1.179,0.832,1.475,1.079,0.460,0.809,0.765,�k�k��,3.5,��
2018/10/26,03:10,0.780,1.180,0.832,1.477,1.078,0.458,0.811,0.765,�k��,4.0,��
2018/10/26,03:20,0.782,1.180,0.830,1.475,1.076,0.460,0.809,0.764,�k��,3.7,��
2018/10/26,03:30,0.779,1.182,0.832,1.473,1.075,0.459,0.811,0.764,�k��,3.8,��
2018/10/26,03:40,0.782,1.183,0.831,1.475,1.079,0.459,0.809,0.766,�k��,3.4,��
2018/10/26,03:50,0.781,1.178,0.832,1.474,1.076,0.458,0.810,0.767,�k��,3.7,��
2018/10/26,04:00,0.780,1.181,0.831,1.475,1.076,0.458,0.809,0.765,�k��,3.8,��
2018/10/26,04:10,0.780,1.179,0.831,1.473,1.076,0.460,0.810,0.765,�k��,4.0,��
2018/10/26,04:20,0.780,1.182,0.832,1.474,1.074,0.459,0.810,0.765,�k��,3.9,��
2018/10/26,04:30,0.779,1.179,0.832,1.473,1.076,0.460,0.810,0.765,�k��,3.4,��
2018/10/26,04:40,0.781,1.181,0.831,1.475,1.074,0.458,0.807,0.765,�k��,2.6,��
2018/10/26,04:50,0.780,1.180,0.831,1.475,1.076,0.459,0.809,0.765,�k��,3.1,��
2018/10/26,05:00,0.779,1.182,0.831,1.472,1.076,0.459,0.809,0.766,�k��,3.3,��
2018/10/26,05:10,0.781,1.176,0.832,1.472,1.076,0.458,0.810,0.765,�k��,3.3,��
2018/10/26,05:20,0.779,1.179,0.834,1.472,1.074,0.460,0.810,0.766,�k��,4.1,��
2018/10/26,05:30,0.779,1.178,0.831,1.473,1.076,0.459,0.807,0.767,�k��,3.1,��
2018/10/26,05:40,0.778,1.178,0.830,1.473,1.080,0.460,0.810,0.766,�k��,3.6,��
2018/10/26,05:50,0.780,1.177,0.832,1.474,1.076,0.459,0.808,0.765,�k��,3.2,��
2018/10/26,06:00,0.780,1.181,0.830,1.473,1.077,0.458,0.809,0.768,�k��,3.4,��
2018/10/26,06:10,0.779,1.180,0.832,1.476,1.075,0.459,0.807,0.766,�k��,3.1,��
2018/10/26,06:20,0.779,1.182,0.831,1.476,1.077,0.459,0.807,0.764,�k��,3.1,��
2018/10/26,06:30,0.780,1.181,0.831,1.474,1.076,0.457,0.807,0.765,�k��,2.6,��
2018/10/26,06:40,0.783,1.179,0.830,1.473,1.078,0.459,0.809,0.768,�k��,2.2,��
2018/10/26,06:50,0.783,1.178,0.831,1.475,1.079,0.459,0.809,0.766,�k��,2.0,��
2018/10/26,07:00,0.779,1.180,0.832,1.474,1.076,0.457,0.809,0.765,�k��,2.0,��
2018/10/26,07:10,0.782,1.181,0.832,1.476,1.075,0.459,0.810,0.767,�k��,2.0,��
2018/10/26,07:20,0.781,1.181,0.830,1.473,1.078,0.459,0.810,0.767,�k��,2.3,��
2018/10/26,07:30,0.779,1.180,0.833,1.474,1.075,0.459,0.809,0.768,���k��,1.5,��
2018/10/26,07:40,0.782,1.184,0.832,1.475,1.076,0.459,0.811,0.768,�k��,1.9,��
2018/10/26,07:50,0.780,1.183,0.834,1.476,1.080,0.460,0.810,0.765,���k��,1.2,��
2018/10/26,08:00,0.779,1.182,0.830,1.473,1.079,0.458,0.811,0.767,���k��,1.5,��
2018/10/26,08:10,0.783,1.182,0.834,1.476,1.078,0.460,0.812,0.766,���k��,1.9,��
2018/10/26,08:20,0.782,1.181,0.833,1.476,1.076,0.461,0.812,0.768,���k��,1.9,��
2018/10/26,08:30,0.783,1.181,0.832,1.475,1.078,0.458,0.810,0.768,�k�k��,1.7,��
2018/10/26,08:40,0.785,1.180,0.834,1.479,1.077,0.459,0.809,0.767,�k�k��,1.5,��
2018/10/26,08:50,0.785,1.180,0.832,1.479,1.080,0.460,0.810,0.767,�k,1.9,��
2018/10/26,09:00,0.783,1.179,0.832,1.478,1.078,0.460,0.811,0.767,�k,1.2,��
2018/10/26,09:10,0.783,1.180,0.832,1.477,1.080,0.460,0.809,0.767,�k�k��,1.1,��
2018/10/26,09:20,0.782,1.178,0.833,1.480,1.081,0.459,0.810,0.768,���k��,0.9,��
2018/10/26,09:30,0.782,1.179,0.833,1.479,1.080,0.461,0.810,0.767,�k,2.2,��
2018/10/26,09:40,0.782,1.180,0.834,1.480,1.081,0.461,0.810,0.768,��,1.9,��
2018/10/26,09:50,0.782,1.179,0.833,1.480,1.080,0.459,0.812,0.770,���쓌,1.2,��
2018/10/26,10:00,0.782,1.180,0.833,1.480,1.078,0.460,0.809,0.769,���쓌,1.7,��
2018/10/26,10:10,0.783,1.180,0.833,1.477,1.081,0.459,0.811,0.766,�쓌,2.5,��
2018/10/26,10:20,0.785,1.179,0.834,1.479,1.079,0.460,0.811,0.768,�쓌,1.9,��
2018/10/26,10:30,0.785,1.182,0.833,1.479,1.078,0.459,0.810,0.767,�쓌,1.9,��
2018/10/26,10:40,0.783,1.182,0.832,1.478,1.079,0.457,0.810,0.767,���쓌,2.0,��
2018/10/26,10:50,0.784,1.183,0.831,1.479,1.081,0.459,0.810,0.765,���쓌,2.0,��
2018/10/26,11:00,0.785,1.182,0.833,1.478,1.083,0.459,0.812,0.764,��,2.5,��
2018/10/26,11:10,0.784,1.184,0.834,1.478,1.081,0.460,0.809,0.769,�쓌,2.6,��
2018/10/26,11:20,0.785,1.184,0.834,1.479,1.081,0.459,0.811,0.767,�쓌,3.0,��
2018/10/26,11:30,0.785,1.181,0.833,1.481,1.081,0.458,0.809,0.768,���쓌,2.6,��
2018/10/26,11:40,0.785,1.185,0.834,1.480,1.082,0.459,0.812,0.767,��쓌,3.4,��
2018/10/26,11:50,0.787,1.184,0.835,1.480,1.082,0.460,0.812,0.766,���쓌,3.7,��
2018/10/26,12:00,0.786,1.186,0.835,1.479,1.081,0.460,0.812,0.769,���쓌,4.1,��
2018/10/26,12:10,0.786,1.185,0.834,1.479,1.083,0.461,0.812,0.766,�쓌,4.5,��
2018/10/26,12:20,0.787,1.185,0.833,1.480,1.085,0.460,0.812,0.767,�쓌,4.5,��
2018/10/26,12:30,0.787,1.186,0.835,1.482,1.084,0.461,0.810,0.768,���쓌,4.4,��
2018/10/26,12:40,0.785,1.184,0.836,1.480,1.083,0.462,0.812,0.765,�쓌,4.6,��
2018/10/26,12:50,0.788,1.183,0.836,1.482,1.083,0.460,0.813,0.767,�쓌,4.5,��
2018/10/26,13:00,0.786,1.185,0.836,1.480,1.084,0.461,0.811,0.766,��쓌,5.6,��
2018/10/26,13:10,0.786,1.185,0.836,1.481,1.085,0.461,0.812,0.766,�쓌,5.6,��
2018/10/26,13:20,0.786,1.185,0.837,1.480,1.087,0.461,0.811,0.765,��쓌,4.5,��
2018/10/26,13:30,0.787,1.188,0.836,1.481,1.085,0.460,0.811,0.767,��쓌,5.3,��
2018/10/26,13:40,0.787,1.185,0.838,1.483,1.086,0.459,0.812,0.766,�쓌,5.8,��
2018/10/26,13:50,0.787,1.187,0.837,1.483,1.085,0.461,0.812,0.766,��쓌,6.4,��
2018/10/26,14:00,0.789,1.189,0.835,1.482,1.087,0.460,0.811,0.766,��쓌,5.6,��
2018/10/26,14:10,0.788,1.187,0.838,1.483,1.086,0.461,0.812,0.767,��쓌,6.9,��
2018/10/26,14:20,0.786,1.186,0.838,1.483,1.085,0.461,0.811,0.767,��쓌,6.7,��
2018/10/26,14:30,0.787,1.188,0.838,1.483,1.085,0.460,0.811,0.765,��쓌,7.5,��
2018/10/26,14:40,0.786,1.183,0.838,1.480,1.087,0.460,0.810,0.765,��쓌,7.0,��
2018/10/26,14:50,0.788,1.186,0.839,1.483,1.085,0.461,0.811,0.767,��쓌,6.6,��
2018/10/26,15:00,0.786,1.187,0.836,1.482,1.087,0.461,0.810,0.767,��쓌,6.8,��
2018/10/26,15:10,0.787,1.185,0.838,1.484,1.087,0.462,0.811,0.765,��쓌,6.8,��
2018/10/26,15:20,0.786,1.188,0.837,1.483,1.085,0.463,0.812,0.766,��쓌,6.5,��
2018/10/26,15:30,0.787,1.187,0.839,1.483,1.087,0.463,0.811,0.765,��쓌,6.2,��
2018/10/26,15:40,0.788,1.188,0.836,1.484,1.087,0.463,0.811,0.768,��쓌,4.5,��
2018/10/26,15:50,0.786,1.191,0.837,1.482,1.084,0.464,0.812,0.765,��,4.4,��
2018/10/26,16:00,0.786,1.189,0.838,1.483,1.086,0.463,0.814,0.765,��,3.8,��
2018/10/26,16:10,0.786,1.193,0.838,1.480,1.087,0.463,0.812,0.767,��,3.6,��
2018/10/26,16:20,0.787,1.193,0.838,1.481,1.086,0.463,0.812,0.768,��,3.0,��
2018/10/26,16:30,0.787,1.193,0.838,1.484,1.087,0.464,0.814,0.768,��,3.4,��
2018/10/26,16:40,0.786,1.197,0.838,1.480,1.087,0.464,0.813,0.767,��,3.6,��
2018/10/26,16:50,0.788,1.198,0.842,1.484,1.089,0.464,0.812,0.767,��쐼,3.6,��
2018/10/26,17:00,0.789,1.198,0.840,1.481,1.088,0.462,0.815,0.769,��쐼,3.9,��
2018/10/26,17:10,0.790,1.195,0.838,1.482,1.089,0.463,0.811,0.767,��쐼,4.3,��
2018/10/26,17:20,0.790,1.196,0.840,1.482,1.087,0.464,0.813,0.768,��,3.9,��
2018/10/26,17:30,0.789,1.197,0.839,1.484,1.089,0.466,0.811,0.769,��,4.0,��
2018/10/26,17:40,0.789,1.195,0.839,1.480,1.089,0.464,0.812,0.768,��,3.7,��
2018/10/26,17:50,0.789,1.194,0.840,1.481,1.091,0.465,0.813,0.767,��,4.0,��
2018/10/26,18:00,0.791,1.195,0.841,1.483,1.089,0.464,0.812,0.770,��,5.2,��
2018/10/26,18:10,0.789,1.193,0.841,1.483,1.088,0.464,0.813,0.768,��쓌,5.0,��
2018/10/26,18:20,0.792,1.195,0.840,1.484,1.089,0.465,0.814,0.768,��,5.2,��
2018/10/26,18:30,0.790,1.192,0.840,1.484,1.088,0.465,0.813,0.767,��,5.8,��
2018/10/26,18:40,0.789,1.194,0.841,1.484,1.088,0.463,0.811,0.768,��,5.7,��
2018/10/26,18:50,0.789,1.192,0.841,1.483,1.090,0.463,0.812,0.768,��,5.8,��
2018/10/26,19:00,0.788,1.192,0.839,1.483,1.089,0.463,0.813,0.769,��,5.6,��
2018/10/26,19:10,0.789,1.192,0.841,1.486,1.089,0.464,0.813,0.768,��,6.2,��
2018/10/26,19:20,0.790,1.194,0.840,1.484,1.088,0.463,0.815,0.768,��쐼,6.7,��
2018/10/26,19:30,0.788,1.193,0.840,1.482,1.087,0.463,0.813,0.768,��쐼,6.0,��
2018/10/26,19:40,0.791,1.192,0.840,1.482,1.088,0.465,0.812,0.768,��쐼,6.0,��
2018/10/26,19:50,0.789,1.193,0.840,1.483,1.086,0.463,0.813,0.768,��,6.5,��
2018/10/26,20:00,0.790,1.194,0.841,1.484,1.086,0.463,0.813,0.768,��,6.4,��
2018/10/26,20:10,0.788,1.191,0.841,1.485,1.087,0.463,0.811,0.768,��,7.1,��
2018/10/26,20:20,0.789,1.194,0.840,1.485,1.089,0.463,0.813,0.769,��쐼,6.6,��
2018/10/26,20:30,0.788,1.194,0.841,1.483,1.089,0.464,0.812,0.768,��쐼,6.2,��
2018/10/26,20:40,0.789,1.190,0.841,1.482,1.088,0.462,0.813,0.767,��,6.3,��
2018/10/26,20:50,0.790,1.193,0.841,1.480,1.088,0.463,0.812,0.767,��,6.7,��
2018/10/26,21:00,0.787,1.192,0.843,1.482,1.087,0.462,0.811,0.766,��,7.0,��
2018/10/26,21:10,0.789,1.194,0.840,1.486,1.089,0.463,0.813,0.769,��,7.2,��
2018/10/26,21:20,0.789,1.192,0.839,1.481,1.088,0.461,0.811,0.768,��쐼,7.3,��
2018/10/26,21:30,0.790,1.189,0.841,1.482,1.085,0.464,0.811,0.768,��쐼,7.2,��
2018/10/26,21:40,0.790,1.190,0.841,1.481,1.087,0.464,0.811,0.768,��,7.6,��
2018/10/26,21:50,0.791,1.193,0.840,1.483,1.087,0.462,0.814,0.767,��쐼,7.1,��
2018/10/26,22:00,0.789,1.192,0.839,1.483,1.089,0.465,0.813,0.769,��쐼,7.7,��
2018/10/26,22:10,0.789,1.194,0.841,1.483,1.087,0.463,0.812,0.768,��쐼,8.7,��
2018/10/26,22:20,0.788,1.193,0.840,1.482,1.089,0.462,0.812,0.768,��,8.9,��
2018/10/26,22:30,0.789,1.192,0.842,1.486,1.090,0.463,0.813,0.768,��,8.4,��
2018/10/26,22:40,0.790,1.193,0.841,1.482,1.086,0.464,0.813,0.769,��,8.2,��
2018/10/26,22:50,0.791,1.193,0.841,1.483,1.088,0.462,0.815,0.768,��,8.0,��
2018/10/26,23:00,0.789,1.189,0.838,1.484,1.089,0.462,0.814,0.767,��,7.2,��
2018/10/26,23:10,0.793,1.190,0.840,1.478,1.088,0.463,0.813,0.767,��쐼,7.0,��
2018/10/26,23:20,0.789,1.189,0.841,1.483,1.088,0.463,0.814,0.770,��,7.6,��
2018/10/26,23:30,0.789,1.193,0.840,1.484,1.088,0.463,0.814,0.769,��,8.0,��
2018/10/26,23:40,0.790,1.190,0.841,1.484,1.090,0.463,0.812,0.768,��,8.3,��
2018/10/26,23:50,0.790,1.192,0.841,1.482,1.087,0.463,0.811,0.769,��,7.3,��
